This demonstration page uses our WeatherBlox Daily Observations layout. Learn more.

Left ArrowRight Arrow

39.01783, -85.05884

Hourly Observations for May 6, 2022

Temp ( °F °C ) Dew Point ( °F °C ) Humidity (%) Winds ( mph kmh ) Pressure ( in mb ) Visibility ( mi km ) Precip ( " mm )
12:52 am 00:52 Cloudy with Light Rain 58 14.4 57 13.9 97 97 ESE 8 13 29.80 1009 6 10 0.00 0.00
1:52 am 01:52 Cloudy 59 15 58 14.4 96 96 ESE 15 24 29.77 1008 7 11 0.01 0.25
2:52 am 02:52 Mostly Cloudy 59 15 58 14.4 96 96 SE 9 15 29.73 1007 8 13 0.00 0.00
3:52 am 03:52 Cloudy 59 15 57 13.9 93 93 SE 5 7 29.71 1006 8 13 0.00 0.00
4:42 am 04:42 Cloudy with Light Rain 59 15 58 14.4 96 96 E 5 7 29.70 1006 8 13 0.01 0.25
4:52 am 04:52 Mostly Cloudy with Light Rain 59 15 58 14.4 96 96 Calm 29.70 1006 8 13 0.01 0.25
4:59 am 04:59 Cloudy with Heavy Rain 59 15 58 14.4 96 96 W 5 7 29.71 1006 2 3 0.01 0.25
5:52 am 05:52 Cloudy with Heavy Rain 58 14.4 58 14.4 100 100 Calm 29.68 1005 1 2 1.07 27.18
6:20 am 06:20 Cloudy with Light Rain 59 15 59 15 100 100 ESE 5 7 29.69 1006 3 5 0.39 9.91
6:30 am 06:30 Cloudy with Light Rain 59 15 59 15 100 100 E 6 9 29.69 1006 5 8 0.40 10.16
6:52 am 06:52 Cloudy with Rain 59 15 59 15 100 100 Calm 29.68 1005 3 5 0.44 11.18
6:54 am 06:54 Cloudy with Rain 59 15 59 15 100 100 NE 5 7 29.69 1006 3 4 0.00 0.00
7:03 am 07:03 Cloudy with Rain 59 15 59 15 100 100 E 7 11 29.69 1006 3 4 0.02 0.51
7:13 am 07:13 Cloudy with Light Rain 59 15 59 15 100 100 ESE 5 7 29.69 1006 3 5 0.04 1.02
7:30 am 07:30 Cloudy with Mist and Fog 59 15 59 15 100 100 SE 5 7 29.69 1006 4 6 0.04 1.02
7:52 am 07:52 Cloudy with Mist and Fog 60 15.6 60 15.6 100 100 SE 7 11 29.68 1005 4 6 0.04 1.02
8:06 am 08:06 Cloudy with Mist and Fog 60 15.6 60 15.6 100 100 SE 8 13 29.69 1005 5 8 0.00 0.00
8:52 am 08:52 Cloudy 61 16.1 61 16.1 100 100 SE 7 11 29.66 1005 7 11 0.00 0.00
9:38 am 09:38 Cloudy 63 17.2 62 16.7 97 97 SE 10 17 29.65 1004 7 11 0.00 0.00
9:41 am 09:41 Cloudy with Mist and Fog 62 16.7 62 16.7 100 100 SE 10 17 29.65 1004 6 10 0.00 0.00
9:52 am 09:52 Cloudy with Mist and Fog 63 17.2 62 16.7 97 97 SSE 10 17 29.64 1004 5 8 0.00 0.00
10:52 am 10:52 Cloudy with Mist and Fog 64 17.8 63 17.2 96 96 SW 5 7 29.62 1003 6 10 0.00 0.00
11:43 am 11:43 Cloudy 68 20 64 17.8 87 87 SW 6 9 29.61 1003 10 16 0.00 0.00
11:52 am 11:52 Mostly Cloudy 68 20 64 17.8 87 87 VRB 3 6 29.61 1003 10 16 0.00 0.00
12:48 pm 12:48 Cloudy 70 21 63 17 78 78 NW 3 6 29.58 1002 10 16 0.00 0.00
12:52 pm 12:52 Cloudy 71 21.7 63 17.2 76 76 WNW 5 7 29.58 1002 10 16 0.00 0.00
12:56 pm 12:56 Cloudy 71 21.7 63 17.2 76 76 NW 5 7 29.57 1001 10 16 0.00 0.00
1:07 pm 13:07 Cloudy 72 22.2 64 17.8 76 76 NNW 3 6 29.56 1001 10 16 0.00 0.00
1:19 pm 13:19 Cloudy with Nearby Thunderstorms 73 22.8 64 17.8 74 74 VRB 6 9 29.56 1001 10 16 0.00 0.00
1:38 pm 13:38 Cloudy with Light Rain 70 21.1 64 17.8 82 82 NW 10 17 29.55 1001 10 16 0.00 0.00
1:52 pm 13:52 Mostly Cloudy with Light Rain 68 20 64 17.8 87 87 NNW 5 7 29.54 1000 5 8 0.01 0.25
1:57 pm 13:57 Cloudy with Thunderstorms 68 20 64 17.8 87 87 NW 8 13 29.54 1000 7 11 0.00 0.00
2:15 pm 14:15 Mostly Cloudy with Rain 67 19.4 64 17.8 91 91 Calm 29.54 1000 3 5 0.13 3.30
2:25 pm 14:25 Cloudy with Nearby Thunderstorms 68 20 63 17.2 84 84 Calm 29.53 1000 10 16 0.14 3.56
2:52 pm 14:52 Cloudy with Nearby Thunderstorms 70 21.1 65 18.3 84 84 NE 3 6 29.52 1000 10 16 0.14 3.56
3:16 pm 15:16 Cloudy 71 21.7 64 17.8 79 79 NE 5 7 29.51 999 10 16 0.00 0.00
3:52 pm 15:52 Cloudy with Light Rain 69 20.6 62 16.7 78 78 N 3 6 29.50 999 10 16 0.00 0.00
4:05 pm 16:05 Cloudy with Nearby Thunderstorms 70 21.1 63 17.2 79 79 Calm 29.49 999 10 16 0.00 0.00
4:42 pm 16:42 Cloudy 66 18.9 64 17.8 93 93 ESE 8 13 29.50 999 10 16 0.00 0.00
4:52 pm 16:52 Cloudy with Thunderstorms 65 18.3 63 17.2 93 93 SE 9 15 29.50 999 5 8 0.02 0.51
5:06 pm 17:06 Cloudy with Thunderstorms 64 17.8 63 17.2 96 96 S 6 9 29.50 999 5 8 0.06 1.52
5:21 pm 17:21 Cloudy with Nearby Thunderstorms 65 18.3 63 17.2 93 93 SE 6 9 29.51 999 9 14 0.10 2.54
5:37 pm 17:37 Cloudy 65 18.3 63 17.2 93 93 SSE 10 17 29.51 999 10 16 0.10 2.54
5:52 pm 17:52 Cloudy 65 18.3 63 17.2 93 93 ESE 7 11 29.50 999 10 16 0.10 2.54
6:30 pm 18:30 Cloudy with Nearby Thunderstorms 65 18.3 63 17.2 93 93 S 5 7 29.49 999 10 16 0.00 0.00
6:52 pm 18:52 Cloudy with Nearby Thunderstorms 65 18.3 63 17.2 93 93 NNE 10 17 29.49 999 9 14 0.00 0.00
7:12 pm 19:12 Cloudy with Nearby Thunderstorms 64 17.8 64 17.8 100 100 NE 15 24 29.49 999 9 14 0.00 0.00
7:43 pm 19:43 Cloudy 63 17.2 58 14.4 84 84 VRB 3 6 29.52 1000 10 16 0.00 0.00
7:52 pm 19:52 Cloudy with Light Rain 63 17.2 60 15.6 90 90 NNW 3 6 29.51 999 10 16 0.00 0.00
8:41 pm 20:41 Cloudy 61 16.1 60 15.6 97 97 N 12 19 29.55 1001 10 16 0.00 0.00
8:52 pm 20:52 Cloudy with Light Rain 61 16.1 60 15.6 97 97 N 13 20 29.54 1000 10 16 0.00 0.00
9:52 pm 21:52 Cloudy 60 15.6 59 15 96 96 N 10 17 29.55 1001 9 14 0.00 0.00
10:11 pm 22:11 Cloudy 59 15 58 14.4 96 96 N 10 17 29.57 1001 10 16 0.00 0.00
10:52 pm 22:52 Cloudy with Light Rain 57 13.9 56 13.3 96 96 N 18 30 29.56 1001 5 8 0.00 0.00
11:52 pm 23:52 Cloudy 55 12.8 54 12.2 96 96 N 14 22 29.57 1001 10 16 0.00 0.00

Powered by AerisWeather